Regional Weather Roundup
Issued by NWS

Home | Current Version | Previous Version | Graphics & Text | Print | Product List | Glossary Off
Versions: 1 2 3 4 5 6 7 8 9 10 11 12 13 14 15 16 17 18 19 20 21 22 23 24 25 26 27 28 29 30 31 32 33 34 35 36 37 38 39 40 41 42 43 44 45 46 47 48 49 50

000
ASUS43 KLSX 011510
RWRMO

WEATHER SUMMARY FOR MISSOURI
NATIONAL WEATHER SERVICE SPRINGFIELD MO
900 AM CST WED MAR 01 2017

NOTE: "FAIR" INDICATES FEW OR NO CLOUDS BELOW 12,000 FEET WITH NO
       SIGNIFICANT WEATHER AND/OR OBSTRUCTIONS TO VISIBILITY.
       CURRENT SKY AND/OR WEATHER CONDITIONS ARE NOT AVAILABLE FOR
       CHILLICOTHE AND FARMINGTON.

MOZ001>031-035>038-043-044-053-054-011600-
...NORTHERN AND WESTERN MISSOURI...

CITY           SKY/WX    TMP DP  RH WIND       PRES   REMARKS
KANSAS CTY INT PTSUNNY   39  27  62 NW21G31   30.00R WCI  29
KANSAS C DTWN  MOSUNNY   41  28  60 NW15G23   30.01R
LEE`S SUMMIT   MOSUNNY   39  30  70 NW18G26   30.00R WCI  30
ST JOSEPH      PTSUNNY   38  29  70 NW20G30   30.01R WCI  28
CHILLICOTHE      N/A     39  30  70 NW17G32   29.95R WCI  30
KIRKSVILLE     CLOUDY    38  33  82 W20G25    29.87R WCI  28

$$
MOZ066>068-077>081-088>096-101>105-011600-
...SOUTHWEST MISSOURI...

CITY           SKY/WX    TMP DP  RH WIND       PRES   REMARKS
SPRINGFIELD    SUNNY     43  33  68 NW13G28   30.01R
JOPLIN         SUNNY     43  32  65 W13       30.08R
BRANSON        MOSUNNY   45  34  65 W12G18    30.01R

$$
MOZ032>034-039>042-045>050-055>058-069>072-011600-
...CENTRAL MISSOURI...

CITY           SKY/WX    TMP DP  RH WIND       PRES   REMARKS
COLUMBIA       CLOUDY    42  35  76 W17G30    29.91R
JEFFERSON CITY CLOUDY    43  34  70 NW18G26   29.93R
ROLLA          LGT RAIN  42  35  76 W18G30    29.89R
SEDALIA        MOSUNNY   42  33  70 W20G30    29.96R
WHITEMAN AFB   PTSUNNY   41  36  84 W16G26    29.96R
WARRENSBURG    PTSUNNY   41  32  70 W14G20    30.00
OSAGE BEACH    CLOUDY    42  34  73 W9G20     29.97

$$
MOZ051-052-059>065-011600-
...EAST CENTRAL MISSOURI...

CITY           SKY/WX    TMP DP  RH WIND       PRES   REMARKS
ST LOUIS INTL  CLOUDY    47  39  74 W20G30    29.81R
SPIRIT OF STL  CLOUDY    46  40  79 W17G26    29.82R
ST CHARLES     CLOUDY    46  40  79 W25G37    29.81R

$$
MOZ072>076-082>087-097>100-106>115-011600-
...SOUTH CENTRAL AND SOUTHEAST MISSOURI...

CITY           SKY/WX    TMP DP  RH WIND       PRES   REMARKS
CAPE GIRARDEAU MOSUNNY   57  47  69 NW18      29.80R
FARMINGTON     CLOUDY    47  41  80 W9G20     29.83R
POPLAR BLUFF   SUNNY     57  47  69 NW14G22   29.84R
WEST PLAINS    SUNNY     49  38  65 W12       29.93R

$$



USA.gov is the U.S. government's official web portal to all federal, state and local government web resources and services.